Location: Newark
(11.6000°N, 43.1667°E)
Time: 05:22:33
(UTC+00:00)

Envisat - Pass Details

Date: 24 September 2019
Orbit: 764 x 766 km, 98.1° (Epoch: 20 October)

Event Time Altitude Azimuth Distance (km) Brightness Sun altitude
Rises 16:45:10 0° 207° (SSW) 3,220 6.5 -26.0°
Reaches altitude 10° 16:48:50 10° 235° (SW) 2,294 6.1 -26.9°
Maximum altitude 16:51:00 13° 261° (W) 2,105 6.1 -27.4°
Drops below altitude 10° 16:53:11 10° 287° (WNW) 2,294 6.4 -27.9°
Sets 16:56:53 0° 315° (NW) 3,220 6.9 -28.8°
